Vancouver, WA
on Saturday, November 17, 2012

Saturday
Previous Day Next Day
Daily Summary
 ActualAverageRecord
Temperature
Mean Temperature °F 46°F  
Max Temperature 50°F 53°F 65°F (1897)
Min Temperature 45°F 40°F 16°F (1955)
Degree Days
Heating Degree Days 17    
Month to date heating degree days 254  
Since 1 July heating degree days 573  
Cooling Degree Days 0    
Month to date cooling degree days 0  
Year to date cooling degree days 398  
Moisture
Dew Point 43°F   
Average Humidity 82    
Maximum Humidity 93    
Minimum Humidity 71    
Precipitation
Precipitation 0.53 in 0.19 in 1.45 in (2010)
Month to date precipitation 1.90 3.12  
Year to date precipitation 33.06 29.58  
Snow
Snow 0.00 in in in ()
Month to date snowfall 0.0  
Snow Depth 0.00 in   
Wind
Wind Speed 8 mph   
Max Wind Speed 15 mph   
Max Gust Speed 22 mph   
Visibility 8 miles   
Events Rain   

Key: T is trace of precipitation, MM is missing value
Source: NWS Daily Summary
Time(PST)TemperatureDew PointHumidity Pressure Visibility Wind DirectionWind SpeedGust SpeedPrecipitationEvents Conditions
12:53 AM 48.9°F 39.9°F 71% 29.71 in 10.0 miles ESE 9.2 mph 18.4 mph N/A   Partly Cloudy
1:53 AM 48.9°F 39.9°F 71% 29.71 in 10.0 miles South 8.1 mph - N/A   Overcast
2:53 AM 48.9°F 39.0°F 69% 29.69 in 10.0 miles ESE 9.2 mph 20.7 mph N/A   Overcast
3:53 AM 46.9°F 42.1°F 83% 29.68 in 10.0 miles ESE 11.5 mph - 0.08 in Rain Light Rain
4:53 AM 46.0°F 42.1°F 86% 29.66 in 7.0 miles SE 6.9 mph - 0.02 in Rain Light Rain
5:53 AM 46.0°F 42.1°F 86% 29.63 in 10.0 miles SE 9.2 mph - 0.00 in   Overcast
6:53 AM 46.0°F 42.1°F 86% 29.61 in 10.0 miles ESE 8.1 mph - 0.01 in Rain Light Rain
7:53 AM 46.0°F 42.1°F 86% 29.61 in 6.0 miles ESE 9.2 mph - 0.03 in Rain Light Rain
8:36 AM 46.4°F 42.8°F 87% 29.60 in 9.0 miles ESE 4.6 mph - 0.02 in Rain Light Rain
8:49 AM 46.4°F 44.6°F 93% 29.62 in 8.0 miles Variable 6.9 mph - 0.03 in Rain Light Rain
8:53 AM 46.0°F 43.0°F 89% 29.61 in 4.0 miles SE 12.7 mph - 0.06 in Rain Heavy Rain
9:03 AM 46.4°F 42.8°F 87% 29.60 in 2.0 miles ESE 10.4 mph - 0.04 in Rain Light Rain
9:27 AM 46.4°F 42.8°F 87% 29.60 in 6.0 miles SE 9.2 mph - 0.10 in Rain Light Rain
9:53 AM 46.9°F 43.0°F 86% 29.59 in 10.0 miles ESE 12.7 mph - 0.11 in Rain Light Rain
10:17 AM 46.4°F 44.6°F 93% 29.58 in 10.0 miles ESE 10.4 mph 17.3 mph 0.00 in Rain Light Rain
10:53 AM 50.0°F 45.0°F 83% 29.57 in 10.0 miles ESE 11.5 mph - 0.00 in   Mostly Cloudy
11:40 AM 50.0°F 46.4°F 87% 29.58 in 9.0 miles Variable 4.6 mph - 0.01 in   Overcast
11:47 AM 48.2°F 46.4°F 93% 29.58 in 2.0 miles Variable 5.8 mph - 0.03 in Rain Rain
11:53 AM 48.9°F 46.0°F 90% 29.59 in 2.5 miles Calm Calm - 0.03 in Rain Light Rain
11:59 AM 48.2°F 46.4°F 93% 29.58 in 4.0 miles Calm Calm - 0.00 in Rain Light Rain
12:15 PM 48.2°F 46.4°F 93% 29.59 in 4.0 miles Calm Calm - 0.00 in Rain Light Rain
12:33 PM 50.0°F 46.4°F 87% 29.60 in 2.0 miles NW 5.8 mph - 0.03 in Rain Rain
12:45 PM 48.2°F 46.4°F 93% 29.61 in 3.0 miles WNW 8.1 mph - 0.05 in Rain Rain
12:53 PM 48.9°F 46.0°F 90% 29.62 in 5.0 miles NW 4.6 mph - 0.06 in Rain Light Rain
12:58 PM 48.2°F 46.4°F 93% 29.62 in 5.0 miles NW 5.8 mph - 0.00 in Rain Light Rain
1:19 PM 48.2°F 46.4°F 93% 29.63 in 6.0 miles Calm Calm - 0.02 in Rain Light Rain
1:53 PM 48.9°F 46.0°F 90% 29.65 in 8.0 miles SE 4.6 mph - 0.04 in Rain Light Rain
2:53 PM 46.9°F 43.0°F 86% 29.68 in 10.0 miles South 6.9 mph - 0.04 in Rain Light Rain
3:53 PM 46.0°F 42.1°F 86% 29.71 in 10.0 miles SSE 6.9 mph - 0.02 in Rain Light Rain
4:53 PM 46.0°F 41.0°F 83% 29.73 in 10.0 miles SSE 6.9 mph - 0.02 in Rain Light Rain
5:13 PM 46.4°F 39.2°F 76% 29.73 in 10.0 miles SSE 6.9 mph - 0.00 in   Overcast
5:53 PM 46.0°F 39.9°F 79% 29.74 in 10.0 miles South 8.1 mph - 0.00 in   Mostly Cloudy
6:53 PM 46.0°F 39.0°F 76% 29.73 in 10.0 miles SSW 10.4 mph - N/A   Clear
7:53 PM 46.0°F 39.0°F 76% 29.74 in 10.0 miles Variable 6.9 mph - N/A   Scattered Clouds
8:05 PM 46.4°F 39.2°F 76% 29.75 in 10.0 miles SSE 4.6 mph - N/A   Mostly Cloudy
8:53 PM 46.0°F 39.0°F 76% 29.77 in 10.0 miles SSE 6.9 mph - N/A   Overcast
9:53 PM 46.0°F 39.9°F 79% 29.78 in 10.0 miles SSE 8.1 mph - 0.00 in Rain Light Rain
10:00 PM 46.4°F 39.2°F 76% 29.79 in 10.0 miles South 10.4 mph 17.3 mph 0.00 in Rain Light Rain
10:53 PM 46.0°F 39.9°F 79% 29.80 in 10.0 miles Variable 6.9 mph - 0.01 in   Mostly Cloudy
11:53 PM 46.0°F 39.0°F 76% 29.82 in 10.0 miles SE 3.5 mph - 0.00 in   Overcast
Moon Phase
Nov. 17 Nov. 20 Nov. 28 Dec. 06 Dec. 13
Sunrise:07:13 AM (PST) Moon Rise:11:02 AM (PST)11/17
Sunset:04:37 PM (PST) Moon Set:08:54 PM (PST)11/17

Copyright © 2014 The Weather Underground, Inc.